Here is the Quick Look data you requested

The Data originates at the National Weather Service, and is made available here by the UAlbany Department of Atmospheric and Environmental Sciences

Surface Observations

KNAK 180154Z AUTO 00000KT 8SM -RA OVC027 04/00 A2995 RMK AO2 SLP144 P0001
 T00390000=
KNAK 180254Z AUTO 33003KT 4SM -RA OVC022 03/01 A2997 RMK AO2 SLP150 P0004 60008
 T00330006 55006
KNAK 180254Z AUTO 33003KT 4SM -RA OVC022 03/01 A2997 RMK AO2 SLP150 P0004 60008
 T00330006 55006=
KNAK 180354Z AUTO 17003KT 4SM -RA SCT019 BKN038 OVC080 03/01 A2993 RMK AO2
 SLP138 P0006 T00330006
KNAK 180354Z AUTO 17003KT 4SM -RA SCT019 BKN038 OVC080 03/01 A2993 RMK AO2
 SLP138 P0006 T00330006=
KNAK 180454Z AUTO 14010KT 5SM -RA BR FEW031 OVC090 03/01 A2987 RMK AO2 SLP116
 P0003 T00330011 400440006
KNAK 180454Z AUTO 14010KT 5SM -RA BR FEW031 OVC090 03/01 A2987 RMK AO2 SLP116
 P0003 T00330011 400440006=
KNAK 180509Z AUTO 17008KT 5SM -RA BR FEW009 SCT070 OVC090 03/01 A2988=
KNAK 180509Z AUTO 17008KT 5SM -RA BR FEW009 SCT070 OVC090 03/01 A2988 RMK AO2
 P0001 T00330011=
KNAK 180525Z AUTO 16007KT 4SM -RA BR BKN009 BKN050 OVC080 04/02 A2988=
KNAK 180525Z AUTO 16007KT 4SM -RA BR BKN009 BKN050 OVC080 04/02 A2988 RMK AO2
 P0003 T00390017=
KNAK 180554Z AUTO VRB05KT 8SM -RA BKN009 04/02 A2991 RMK AO2 SLP129 P0004 60021
 T00440022 10044 20033 55021
KNAK 180554Z AUTO VRB05KT 8SM -RA BKN009 04/02 A2991 RMK AO2 SLP129 P0004 60021
 T00440022 10044 20033 55021=
KNAK 180641Z AUTO 16007KT 7SM -RA BKN010 BKN027 OVC080 04/02 A2985 RMK AO2
 P0001 T00440022
KNAK 180641Z AUTO 16007KT 7SM -RA BKN010 BKN027 OVC080 04/02 A2985 RMK AO2
 P0001 T00440022=
KNAK 180641Z AUTO 16007KT 7SM -RA BKN010 BKN027 OVC080 04/02 A2985=
KNAK 180652Z AUTO 14009KT 6SM -RA BR SCT012 SCT027 OVC075 04/02 A2981 RMK AO2
 SLP097 P0002 T00440022=
KNAK 180702Z AUTO 15007KT 6SM -RA BR SCT008 BKN015 OVC075 04/02 A2981 RMK AO2
 P0001 T00440022=
KNAK 180702Z AUTO 15007KT 6SM -RA BR SCT008 BKN015 OVC075 04/02 A2981=
KNAK 180721Z AUTO 16007KT 6SM -RA SCT008 BKN014 OVC070 05/02 A2979 RMK AO2
 P0002 T00500022
KNAK 180721Z AUTO 16007KT 6SM -RA SCT008 BKN014 OVC070 05/02 A2979=
KNAK 180721Z AUTO 16007KT 6SM -RA SCT008 BKN014 OVC070 05/02 A2979 RMK AO2
 P0002 T00500022=
KNAK 180728Z AUTO 18009KT 6SM -RA BKN008 BKN012 OVC070 05/02 A2980 RMK AO2
 P0003 T00500022
KNAK 180728Z AUTO 18009KT 6SM -RA BKN008 BKN012 OVC070 05/02 A2980 RMK AO2
 P0003 T00500022=
KNAK 180728Z AUTO 18009KT 6SM -RA BKN008 BKN012 OVC070 05/02 A2980=
KNAK 180754Z AUTO 17006KT 5SM -RA BR OVC008 05/03 A2980 RMK AO2 SLP091 P0006
 T00500028
KNAK 180754Z AUTO 17006KT 5SM -RA BR OVC008 05/03 A2980 RMK AO2 SLP091 P0006
 T00500028=
KNAK 180854Z AUTO 00000KT 5SM -RA BR OVC008 05/03 A2977 RMK AO2 SLP081 P0007
 60015 T00500028 56048
KNAK 180854Z AUTO 00000KT 5SM -RA BR OVC008 05/03 A2977 RMK AO2 SLP081 P0007
 60015 T00500028 56048=
KNAK 180945Z AUTO 32005KT 7SM -RA OVC011 05/03 A2980 RMK AO2 P0003 T00500028
KNAK 180945Z AUTO 32005KT 7SM -RA OVC011 05/03 A2980 RMK AO2 P0003 T00500028=
KNAK 180945Z AUTO 32005KT 7SM -RA OVC011 05/03 A2980=
KNAK 180954Z AUTO 32005KT 10SM -RA BKN010 OVC014 05/03 A2980 RMK AO2 SLP092
 P0003 T00500028
KNAK 180954Z AUTO 32005KT 10SM -RA BKN010 OVC014 05/03 A2980 RMK AO2 SLP092
 P0003 T00500028=
KNAK 181005Z AUTO 32005KT 7SM -RA BKN008 OVC014 05/03 A2980 RMK AO2 P0001
 T00500028
KNAK 181005Z AUTO 32005KT 7SM -RA BKN008 OVC014 05/03 A2980=
KNAK 181005Z AUTO 32005KT 7SM -RA BKN008 OVC014 05/03 A2980 RMK AO2 P0001
 T00500028=
KNAK 180954Z AUTO 32005KT 10SM -RA BKN010 OVC014 05/03 A2980 RMK AO2 SLP092
 P0003 T00500028=
KNAK 181023Z AUTO 33004KT 10SM -RA SCT008 BKN012 OVC021 05/03 A2980 RMK AO2
 P0001 T00500028
KNAK 181023Z AUTO 33004KT 10SM -RA SCT008 BKN012 OVC021 05/03 A2980 RMK AO2
 P0001 T00500028=
KNAK 181023Z AUTO 33004KT 10SM -RA SCT008 BKN012 OVC021 05/03 A2980=
KNAK 181036Z AUTO 31003KT 10SM -RA SCT010 BKN022 OVC043 05/03 A2981 RMK AO2
 P0001 T00500028
KNAK 181036Z AUTO 31003KT 10SM -RA SCT010 BKN022 OVC043 05/03 A2981 RMK AO2
 P0001 T00500028=
KNAK 181036Z AUTO 31003KT 10SM -RA SCT010 BKN022 OVC043 05/03 A2981=
KNAK 181047Z AUTO 00000KT 10SM -RA FEW012 SCT022 OVC038 05/03 A2982 RMK AO2
 P0001 T00500028
KNAK 181047Z AUTO 00000KT 10SM -RA FEW012 SCT022 OVC038 05/03 A2982=
KNAK 181047Z AUTO 00000KT 10SM -RA FEW012 SCT022 OVC038 05/03 A2982 RMK AO2
 P0001 T00500028=
KNAK 181054Z AUTO 00000KT 10SM -RA FEW022 OVC038 05/03 A2979 RMK AO2 SLP091
 P0001 T00500028
KNAK 181054Z AUTO 00000KT 10SM -RA FEW022 OVC038 05/03 A2979 RMK AO2 SLP091
 P0001 T00500028=
KNAK 181154Z AUTO 31004KT 10SM BKN035 06/03 A2983 RMK AO2 RAE11 SLP102 P0000
 60019 70040 T00560028 10056 20044 52021
KNAK 181154Z AUTO 31004KT 10SM BKN035 06/03 A2983 RMK AO2 RAE11 SLP102 P0000
 60019 70040 T00560028 10056 20044 52021=
KNAK 181254Z AUTO 00000KT 9SM CLR 06/03 A2986 RMK AO2 SLP112 T00560028
KNAK 181254Z AUTO 00000KT 9SM CLR 06/03 A2986 RMK AO2 SLP112 T00560028=
KNAK 181354Z AUTO 32003KT 10SM CLR 07/03 A2990 RMK AO2 SLP127 T00670028
KNAK 181354Z AUTO 32003KT 10SM CLR 07/03 A2990 RMK AO2 SLP127 T00670028=
KNAK 181454Z AUTO 32006KT 10SM CLR 07/03 A2991 RMK AO2 SLP130 T00720028 51028
KNAK 181454Z AUTO 32006KT 10SM CLR 07/03 A2991 RMK AO2 SLP130 T00720028 51028=
KNAK 181554Z AUTO 29010G24KT 270V340 10SM CLR 09/00 A2995 RMK AO2 SLP145
 T00940000
KNAK 181554Z AUTO 29010G24KT 270V340 10SM CLR 09/00 A2995 RMK AO2 SLP145
 T00940000=
KNAK 181654Z AUTO 31008G20KT 10SM FEW049 FEW055 10/00 A2997 RMK AO2 PK WND
 31029/1643 SLP150 T01000000
KNAK 181654Z AUTO 31008G20KT 10SM FEW049 FEW055 10/00 A2997 RMK AO2 PK WND
 31029/1643 SLP150 T01000000=
KNAK 181754Z AUTO 32017G27KT 10SM FEW050 10/M02 A2998 RMK AO2 PK WND 30031/1726
 SLP154 T01001022 10111 20050 51023
KNAK 181754Z AUTO 32017G27KT 10SM FEW050 10/M02 A2998 RMK AO2 PK WND 30031/1726
 SLP154 T01001022 10111 20050 51023=
KNAK 181854Z AUTO 31016G28KT 10SM FEW060 09/M03 A3002 RMK AO2 PK WND 31031/1814
 SLP166 T00941028
KNAK 181854Z AUTO 31016G28KT 10SM FEW060 09/M03 A3002 RMK AO2 PK WND 31031/1814
 SLP166 T00941028=
KNAK 181954Z AUTO 31015G35KT 10SM CLR 09/M03 A3004 RMK AO2 PK WND 28035/1951
 SLP172 T00941033
KNAK 181954Z AUTO 31015G35KT 10SM CLR 09/M03 A3004 RMK AO2 PK WND 28035/1951
 SLP172 T00941033=
KNAK 182054Z AUTO 31015G35KT 10SM CLR 09/M04 A3007 RMK AO2 PK WND 30043/2040
 SLP184 T00891039 51030
KNAK 182054Z AUTO 31015G35KT 10SM CLR 09/M04 A3007 RMK AO2 PK WND 30043/2040
 SLP184 T00891039 51030=
KNAK 182154Z AUTO 31013G28KT 10SM CLR 08/M04 A3013 RMK AO2 PK WND 31030/2138
 SLP203 T00831044 $
KNAK 182154Z AUTO 31013G28KT 10SM CLR 08/M04 A3013 RMK AO2 PK WND 31030/2138
 SLP203 T00831044 $=
KNAK 182254Z AUTO 31012G29KT 10SM BKN060 07/M04 A3019 RMK AO2 PK WND 31032/2201
 SLP224 T00721039 $
KNAK 182254Z AUTO 31012G29KT 10SM BKN060 07/M04 A3019 RMK AO2 PK WND 31032/2201
 SLP224 T00721039 $=
KNAK 182354Z AUTO 32013G23KT 10SM CLR 07/M04 A3024 RMK AO2 SLP243 T00671044
 10106 20067 51059 $
KNAK 182354Z AUTO 32013G23KT 10SM CLR 07/M04 A3024 RMK AO2 SLP243 T00671044
 10106 20067 51059 $=
KNAK 190054Z AUTO 32011KT 10SM BKN060 06/M04 A3028 RMK AO2 SLP254 T00611044 $
KNAK 190054Z AUTO 32011KT 10SM BKN060 06/M04 A3028 RMK AO2 SLP254 T00611044 $=
KNAK 190154Z AUTO 33010G24KT 10SM FEW060 06/M05 A3031 RMK AO2 SLP265 T00561050 $
KNAK 190154Z AUTO 33010G24KT 10SM FEW060 06/M05 A3031 RMK AO2 SLP265 T00561050
 $=
KNAK 190254Z AUTO 32010G21KT 10SM FEW055 05/M05 A3035 RMK AO2 SLP280 T00501050
 53037 $
KNAK 190254Z AUTO 32010G21KT 10SM FEW055 05/M05 A3035 RMK AO2 SLP280 T00501050
 53037 $=
KNAK 190354Z AUTO 33011KT 10SM SCT055 04/M04 A3038 RMK AO2 SLP289 T00441044 $
KNAK 190354Z AUTO 33011KT 10SM SCT055 04/M04 A3038 RMK AO2 SLP289 T00441044 $=
KNAK 190454Z AUTO 35009KT 10SM FEW049 04/M06 A3041 RMK AO2 SLP298 T00391061
 401110033 $
KNAK 190454Z AUTO 35009KT 10SM FEW049 04/M06 A3041 RMK AO2 SLP298 T00391061
 401110033 $=
KNAK 190554Z AUTO 33011KT 10SM CLR 03/M06 A3043 RMK AO2 SLP305 T00281056 10067
 20028 51025 $
KNAK 190554Z AUTO 33011KT 10SM CLR 03/M06 A3043 RMK AO2 SLP305 T00281056 10067
 20028 51025 $=
KNAK 190654Z AUTO 33012KT 10SM CLR 03/M06 A3046 RMK AO2 SLP317 T00281056 $
KNAK 190654Z AUTO 33012KT 10SM CLR 03/M06 A3046 RMK AO2 SLP317 T00281056 $=
KNAK 190754Z AUTO 33010KT 10SM CLR 02/M06 A3048 RMK AO2 SLP323 T00221061 $
KNAK 190754Z AUTO 33010KT 10SM CLR 02/M06 A3048 RMK AO2 SLP323 T00221061 $=